Flag for Fiji Weather past 2 weeks in Lautoka, Fiji

Now
73 °F

Passing clouds.


Feels Like: 72 °F
Forecast: 77 / 87 °F
Wind: No wind

Location: Nandi

Current Time: Apr 1, 2015 at 1:36:59 AM

Latest Report: Apr 1, 2015 at 1:00 AM


Visibility: N/A

Pressure: 29.89 "Hg

Humidity: 89%

Dew point: 70 °F

Location of LautokaLocation

Historic Weather in Lautoka — Graph

°F

Lautoka temperature yesterday

Maximum temperature yesterday: 90 °F (at 12:00 PM)
Minimum temperature yesterday: 70 °F (at 6:00 AM)
Average temperature yesterday: 79 °F

Past Weeks' High & Low Weather Summary

 TemperatureHumidityPressure
High90 °F (Mar 28, 1:00 PM)100% (Mar 17, 12:00 AM)29.95 "Hg (Mar 17, 12:00 AM)
Low68 °F (Mar 25, 3:00 AM)49% (Mar 29, 12:00 PM)29.62 "Hg (Mar 21, 3:00 PM)
Average79 °F80%29.81 "Hg
* Reported Midnight between Mar 16 and Mar 17 — Midnight between Mar 31 and Apr 1, Lautoka, Weather by CustomWeather, © 2015

Note: Actual official high and low records may vary slightly from our data, if they occured in-between our weather recording intervals... More about our weather records

Advertising

Lautoka weather history for previous 24 hours

 ConditionsComfort  
Time TempWeatherWind HumidityBarometerVisibility
12:00 AM
Wed, Apr 1
73 °FPassing clouds.6 mph89%29.89 "HgN/A
11:00 PM
Tue, Mar 31
75 °FPassing clouds.6 mph83%29.92 "HgN/A
10:00 PM77 °FPassing clouds.3 mph79%29.92 "HgN/A
9:00 PM77 °FPassing clouds.7 mph79%29.89 "HgN/A
8:00 PM79 °FPassing clouds.7 mph79%29.86 "HgN/A
7:00 PM81 °FPassing clouds.5 mph79%29.86 "HgN/A
6:00 PM82 °FScattered clouds.8 mph66%29.83 "HgN/A
5:00 PM84 °FScattered clouds.7 mph58%29.80 "HgN/A
4:00 PM84 °FScattered clouds.12 mph66%29.80 "HgN/A
3:00 PM88 °FScattered clouds.10 mph59%29.80 "HgN/A
2:00 PM88 °FScattered clouds.12 mph66%29.83 "HgN/A
1:00 PM90 °FScattered clouds.7 mph49%29.83 "HgN/A
12:00 PM90 °FPassing clouds.10 mph49%29.86 "HgN/A
11:00 AM88 °FPassing clouds.7 mph49%29.89 "HgN/A
10:00 AM86 °FPassing clouds.5 mph62%29.92 "HgN/A
9:00 AM82 °FPassing clouds.5 mph66%29.92 "HgN/A
8:00 AM77 °FPassing clouds.5 mph79%29.92 "HgN/A
7:00 AM72 °FScattered clouds.7 mph88%29.92 "HgN/A
6:00 AM70 °FPassing clouds.3 mph94%29.89 "HgN/A
5:00 AM72 °FPassing clouds.5 mph88%29.89 "HgN/A
4:00 AM72 °FPassing clouds.6 mph88%29.86 "HgN/A
3:00 AM72 °FPassing clouds.3 mph88%29.89 "HgN/A
2:00 AM72 °FPassing clouds.2 mph88%29.89 "HgN/A
1:00 AM73 °FPassing clouds.7 mph83%29.92 "HgN/A
Weather by CustomWeather, © 2015

See weather overviewHow to use our weather pages